Time,TemperatureF,DewpointF,PressureIn,WindDirection,WindDirectionDegrees,WindSpeedMPH,WindSpeedGustMPH,Humidity,HourlyPrecipIn,Conditions,Clouds,dailyrainin,SoftwareType,DateUTC
2013-03-24 00:23:00,33.0,-99.9,29.96,North,355,5.0,14.0,-999,-99.99,,,-99.99,,2013-03-24 04:23:00,
2013-03-24 00:33:00,33.0,-99.9,29.96,North,355,5.0,14.0,-999,-99.99,,,-99.99,,2013-03-24 04:33:00,
2013-03-24 00:43:00,33.0,-99.9,29.96,North,355,5.0,14.0,-999,-99.99,,,-99.99,,2013-03-24 04:43:00,
2013-03-24 00:52:00,34.0,-99.9,29.96,NNE,17,6.0,10.0,-999,-99.99,,,-99.99,,2013-03-24 04:52:00,
2013-03-24 01:23:00,34.0,-99.9,29.96,NNE,17,6.0,10.0,-999,-99.99,,,-99.99,,2013-03-24 05:23:00,
2013-03-24 01:33:00,34.0,-99.9,29.96,NNE,17,6.0,10.0,-999,-99.99,,,-99.99,,2013-03-24 05:33:00,
2013-03-24 01:43:00,34.0,-99.9,29.96,NNE,17,6.0,10.0,-999,-99.99,,,-99.99,,2013-03-24 05:43:00,
2013-03-24 01:52:00,33.0,-99.9,29.96,NNE,29,3.0,6.0,-999,-99.99,,,-99.99,,2013-03-24 05:52:00,
2013-03-24 02:22:00,33.0,-99.9,29.96,NNE,29,3.0,6.0,-999,-99.99,,,-99.99,,2013-03-24 06:22:00,
2013-03-24 02:32:00,33.0,-99.9,29.96,NNE,29,3.0,6.0,-999,-99.99,,,-99.99,,2013-03-24 06:32:00,
2013-03-24 02:43:00,33.0,-99.9,29.96,NNE,29,3.0,6.0,-999,-99.99,,,-99.99,,2013-03-24 06:43:00,
2013-03-24 02:52:00,31.0,-99.9,29.94,NNE,21,5.0,10.0,-999,-99.99,,,-99.99,,2013-03-24 06:52:00,
2013-03-24 03:22:00,31.0,-99.9,29.94,NNE,21,5.0,10.0,-999,-99.99,,,-99.99,,2013-03-24 07:22:00,
2013-03-24 03:32:00,31.0,-99.9,29.94,NNE,21,5.0,10.0,-999,-99.99,,,-99.99,,2013-03-24 07:32:00,
2013-03-24 03:42:00,31.0,-99.9,29.94,NNE,21,5.0,10.0,-999,-99.99,,,-99.99,,2013-03-24 07:42:00,
2013-03-24 03:52:00,27.0,-99.9,29.95,SW,228,-999.0,-999.0,-999,-99.99,,,-99.99,,2013-03-24 07:52:00,
2013-03-24 04:22:00,27.0,-99.9,29.95,SW,228,-999.0,-999.0,-999,-99.99,,,-99.99,,2013-03-24 08:22:00,
2013-03-24 04:32:00,27.0,-99.9,29.95,SW,228,-999.0,-999.0,-999,-99.99,,,-99.99,,2013-03-24 08:32:00,
2013-03-24 04:42:00,27.0,-99.9,29.95,SW,228,-999.0,-999.0,-999,-99.99,,,-99.99,,2013-03-24 08:42:00,
2013-03-24 04:52:00,25.0,-99.9,29.96,West,262,-999.0,-999.0,-999,-99.99,,,-99.99,,2013-03-24 08:52:00,
2013-03-24 05:22:00,25.0,-99.9,29.96,West,262,-999.0,-999.0,-999,-99.99,,,-99.99,,2013-03-24 09:22:00,
2013-03-24 05:33:00,25.0,-99.9,29.96,West,262,-999.0,-999.0,-999,-99.99,,,-99.99,,2013-03-24 09:33:00,
2013-03-24 05:43:00,25.0,-99.9,29.96,West,262,-999.0,-999.0,-999,-99.99,,,-99.99,,2013-03-24 09:43:00,
2013-03-24 05:52:00,23.0,-99.9,29.98,North,11,-999.0,-999.0,-999,-99.99,,,-99.99,,2013-03-24 09:52:00,
2013-03-24 06:23:00,23.0,-99.9,29.98,North,11,-999.0,-999.0,-999,-99.99,,,-99.99,,2013-03-24 10:23:00,
2013-03-24 06:33:00,23.0,-99.9,29.98,North,11,-999.0,-999.0,-999,-99.99,,,-99.99,,2013-03-24 10:33:00,
2013-03-24 06:42:00,23.0,-99.9,29.98,North,11,-999.0,-999.0,-999,-99.99,,,-99.99,,2013-03-24 10:42:00,
2013-03-24 06:52:00,22.0,-99.9,29.98,North,11,-999.0,-999.0,-999,-99.99,,,-99.99,,2013-03-24 10:52:00,
2013-03-24 07:33:00,22.0,-99.9,29.98,North,11,-999.0,-999.0,-999,-99.99,,,-99.99,,2013-03-24 11:33:00,
2013-03-24 07:43:00,22.0,-99.9,29.98,North,11,-999.0,-999.0,-999,-99.99,,,-99.99,,2013-03-24 11:43:00,
2013-03-24 07:52:00,26.0,-99.9,29.98,North,11,-999.0,-999.0,-999,-99.99,,,-99.99,,2013-03-24 11:52:00,
2013-03-24 08:33:00,26.0,-99.9,29.98,North,11,-999.0,-999.0,-999,-99.99,,,-99.99,,2013-03-24 12:33:00,
2013-03-24 08:42:00,26.0,-99.9,29.98,North,11,-999.0,-999.0,-999,-99.99,,,-99.99,,2013-03-24 12:42:00,
2013-03-24 08:52:00,35.0,-99.9,29.98,NE,47,4.0,9.0,-999,-99.99,,,-99.99,,2013-03-24 12:52:00,
2013-03-24 09:23:00,35.0,-99.9,29.98,NE,47,4.0,9.0,-999,-99.99,,,-99.99,,2013-03-24 13:23:00,
2013-03-24 09:33:00,35.0,-99.9,29.98,NE,47,4.0,9.0,-999,-99.99,,,-99.99,,2013-03-24 13:33:00,
2013-03-24 09:43:00,35.0,-99.9,29.98,NE,47,4.0,9.0,-999,-99.99,,,-99.99,,2013-03-24 13:43:00,
2013-03-24 09:52:00,36.0,-99.9,29.97,North,-999,7.0,13.0,-999,-99.99,,,-99.99,,2013-03-24 13:52:00,
2013-03-24 10:22:00,36.0,-99.9,29.97,North,-999,7.0,13.0,-999,-99.99,,,-99.99,,2013-03-24 14:22:00,
2013-03-24 10:33:00,36.0,-99.9,29.97,North,-999,7.0,13.0,-999,-99.99,,,-99.99,,2013-03-24 14:33:00,
2013-03-24 10:43:00,36.0,-99.9,29.97,North,-999,7.0,13.0,-999,-99.99,,,-99.99,,2013-03-24 14:43:00,
2013-03-24 10:52:00,38.0,-99.9,29.93,NE,40,8.0,14.0,-999,-99.99,,,-99.99,,2013-03-24 14:52:00,
2013-03-24 11:33:00,38.0,-99.9,29.93,NE,40,8.0,14.0,-999,-99.99,,,-99.99,,2013-03-24 15:33:00,
2013-03-24 11:43:00,38.0,-99.9,29.93,NE,40,8.0,14.0,-999,-99.99,,,-99.99,,2013-03-24 15:43:00,
2013-03-24 11:52:00,40.0,-99.9,29.87,North,-999,6.0,13.0,-999,-99.99,,,-99.99,,2013-03-24 15:52:00,
2013-03-24 12:23:00,40.0,-99.9,29.87,North,-999,6.0,13.0,-999,-99.99,,,-99.99,,2013-03-24 16:23:00,
2013-03-24 12:33:00,40.0,-99.9,29.87,North,-999,6.0,13.0,-999,-99.99,,,-99.99,,2013-03-24 16:33:00,
2013-03-24 12:43:00,40.0,-99.9,29.87,North,-999,6.0,13.0,-999,-99.99,,,-99.99,,2013-03-24 16:43:00,
2013-03-24 12:52:00,42.0,-99.9,29.87,North,1,3.0,10.0,-999,-99.99,,,-99.99,,2013-03-24 16:52:00,
2013-03-24 13:23:00,42.0,-99.9,29.87,North,1,3.0,10.0,-999,-99.99,,,-99.99,,2013-03-24 17:23:00,
2013-03-24 13:33:00,42.0,-99.9,29.87,North,1,3.0,10.0,-999,-99.99,,,-99.99,,2013-03-24 17:33:00,
2013-03-24 13:43:00,42.0,-99.9,29.87,North,1,3.0,10.0,-999,-99.99,,,-99.99,,2013-03-24 17:43:00,
2013-03-24 13:52:00,43.0,-99.9,29.81,North,1,-999.0,9.0,-999,-99.99,,,-99.99,,2013-03-24 17:52:00,
2013-03-24 14:22:00,43.0,-99.9,29.81,North,1,-999.0,9.0,-999,-99.99,,,-99.99,,2013-03-24 18:22:00,
2013-03-24 14:33:00,43.0,-99.9,29.81,North,1,-999.0,9.0,-999,-99.99,,,-99.99,,2013-03-24 18:33:00,
2013-03-24 14:43:00,43.0,-99.9,29.81,North,1,-999.0,9.0,-999,-99.99,,,-99.99,,2013-03-24 18:43:00,
2013-03-24 14:52:00,46.0,-99.9,29.75,East,99,9.0,9.0,-999,-99.99,,,-99.99,,2013-03-24 18:52:00,
2013-03-24 15:23:00,46.0,-99.9,29.75,East,99,9.0,9.0,-999,-99.99,,,-99.99,,2013-03-24 19:23:00,
2013-03-24 15:33:00,46.0,-99.9,29.75,East,99,9.0,9.0,-999,-99.99,,,-99.99,,2013-03-24 19:33:00,
2013-03-24 15:43:00,46.0,-99.9,29.75,East,99,9.0,9.0,-999,-99.99,,,-99.99,,2013-03-24 19:43:00,
2013-03-24 15:52:00,44.0,-99.9,29.73,SE,125,-999.0,8.0,-999,-99.99,,,-99.99,,2013-03-24 19:52:00,
2013-03-24 16:22:00,44.0,-99.9,29.73,SE,125,-999.0,8.0,-999,-99.99,,,-99.99,,2013-03-24 20:22:00,
2013-03-24 16:33:00,44.0,-99.9,29.73,SE,125,-999.0,8.0,-999,-99.99,,,-99.99,,2013-03-24 20:33:00,
2013-03-24 16:43:00,44.0,-99.9,29.73,SE,125,-999.0,8.0,-999,-99.99,,,-99.99,,2013-03-24 20:43:00,
2013-03-24 18:52:00,42.0,-99.9,29.71,East,87,-999.0,5.0,-999,-99.99,,,-99.99,,2013-03-24 22:52:00,
2013-03-24 19:23:00,42.0,-99.9,29.71,East,87,-999.0,5.0,-999,-99.99,,,-99.99,,2013-03-24 23:23:00,
2013-03-24 19:32:00,42.0,-99.9,29.71,East,87,-999.0,5.0,-999,-99.99,,,-99.99,,2013-03-24 23:32:00,
2013-03-24 19:43:00,42.0,-99.9,29.71,East,87,-999.0,5.0,-999,-99.99,,,-99.99,,2013-03-24 23:43:00,
2013-03-24 19:52:00,39.0,-99.9,29.73,East,84,-999.0,-999.0,-999,-99.99,,,-99.99,,2013-03-24 23:52:00,
2013-03-24 20:23:00,39.0,-99.9,29.73,East,84,-999.0,-999.0,-999,-99.99,,,-99.99,,2013-03-25 00:23:00,
2013-03-24 20:33:00,39.0,-99.9,29.73,East,84,-999.0,-999.0,-999,-99.99,,,-99.99,,2013-03-25 00:33:00,
2013-03-24 20:43:00,39.0,-99.9,29.73,East,84,-999.0,-999.0,-999,-99.99,,,-99.99,,2013-03-25 00:43:00,
2013-03-24 20:52:00,38.0,-99.9,29.73,East,84,-999.0,-999.0,-999,-99.99,,,-99.99,,2013-03-25 00:52:00,
2013-03-24 21:22:00,38.0,-99.9,29.73,East,84,-999.0,-999.0,-999,-99.99,,,-99.99,,2013-03-25 01:22:00,
2013-03-24 21:32:00,38.0,-99.9,29.73,East,84,-999.0,-999.0,-999,-99.99,,,-99.99,,2013-03-25 01:32:00,
2013-03-24 21:42:00,38.0,-99.9,29.73,East,84,-999.0,-999.0,-999,-99.99,,,-99.99,,2013-03-25 01:42:00,
2013-03-24 21:52:00,39.0,-99.9,29.75,SSE,159,5.0,7.0,-999,-99.99,,,-99.99,,2013-03-25 01:52:00,
2013-03-24 22:33:00,39.0,-99.9,29.75,SSE,159,5.0,7.0,-999,-99.99,,,-99.99,,2013-03-25 02:33:00,
2013-03-24 22:43:00,39.0,-99.9,29.75,SSE,159,5.0,7.0,-999,-99.99,,,-99.99,,2013-03-25 02:43:00,
2013-03-24 22:52:00,37.0,-99.9,29.73,SSE,150,3.0,7.0,-999,-99.99,,,-99.99,,2013-03-25 02:52:00,
2013-03-24 23:34:00,37.0,-99.9,29.73,SSE,150,3.0,7.0,-999,-99.99,,,-99.99,,2013-03-25 03:34:00,
2013-03-24 23:43:00,37.0,-99.9,29.73,SSE,150,3.0,7.0,-999,-99.99,,,-99.99,,2013-03-25 03:43:00,
2013-03-24 23:52:00,36.0,-99.9,29.70,East,80,-999.0,-999.0,-999,-99.99,,,-99.99,,2013-03-25 03:52:00,